Tracking 23762 objects as of 22-Oct-2021
HD Live streaming from Space Station
objects crossing your sky now

FREGAT R/B

Track FREGAT R/B now!


NORAD ID: 40891
Int'l Code: 2015-045C
Perigee: 23,466.3 km
Apogee: 23,613.1 km
Inclination: 55.7 °
Period: 858.0 minutes
Semi major axis: 29910 km
RCS: Unknown
Launch date: September 11, 2015
Source: Commonwealth of Independent States (former USSR) (CIS)
Launch site: FRENCH GUIANA (FRGUI)

Note: This is a ROCKET BODY
aabbcc
Your satellite tracking list
Your tracking list is empty




NASA's NSSDC Master Catalog

Two Line Element Set (TLE):
1 40891U 15045C   21293.86192905 -.00000025  00000-0  00000-0 0  9992
2 40891  55.7158 270.4832 0024548 225.0938 134.6676  1.67827566 37464
Source of the keplerian elements: AFSPC